Year,Month,Day,Hour,Minute,Value (Times are PST for temperature in C)
2014,10,06,00,00,14.20
2014,10,06,00,01,14.10
2014,10,06,00,02,14.10
2014,10,06,00,03,14.10
2014,10,06,00,04,14.10
2014,10,06,00,05,14.10
2014,10,06,00,06,14.10
2014,10,06,00,07,14.10
2014,10,06,00,08,14.10
2014,10,06,00,09,14.10
2014,10,06,00,10,14.10
2014,10,06,00,11,14.10
2014,10,06,00,12,14.10
2014,10,06,00,13,14.20
2014,10,06,00,14,14.20
2014,10,06,00,15,14.20
2014,10,06,00,16,14.20
2014,10,06,00,17,14.30
2014,10,06,00,18,14.30
2014,10,06,00,19,14.30
2014,10,06,00,20,14.30
2014,10,06,00,21,14.30
2014,10,06,00,22,14.40
2014,10,06,00,23,14.40
2014,10,06,00,24,14.40
2014,10,06,00,25,14.40
2014,10,06,00,26,14.40
2014,10,06,00,27,14.40
2014,10,06,00,28,14.40
2014,10,06,00,29,14.40
2014,10,06,00,30,14.40
2014,10,06,00,31,14.40
2014,10,06,00,32,14.40
2014,10,06,00,33,14.40
2014,10,06,00,34,14.40
2014,10,06,00,35,14.40
2014,10,06,00,36,14.40
2014,10,06,00,37,14.30
2014,10,06,00,38,14.30
2014,10,06,00,39,14.30
2014,10,06,00,40,14.30
2014,10,06,00,41,14.40
2014,10,06,00,42,14.40
2014,10,06,00,43,14.40
2014,10,06,00,44,14.40
2014,10,06,00,45,14.40
2014,10,06,00,46,14.40
2014,10,06,00,47,14.40
2014,10,06,00,48,14.30
2014,10,06,00,49,14.30
2014,10,06,00,50,14.30
2014,10,06,00,51,14.30
2014,10,06,00,52,14.30
2014,10,06,00,53,14.30
2014,10,06,00,54,14.30
2014,10,06,00,55,14.30
2014,10,06,00,56,14.30
2014,10,06,00,57,14.30
2014,10,06,00,58,14.30
2014,10,06,00,59,14.30
2014,10,06,01,00,14.30
2014,10,06,01,01,14.30
2014,10,06,01,02,14.30
2014,10,06,01,03,14.30
2014,10,06,01,04,14.30
2014,10,06,01,05,14.30
2014,10,06,01,06,14.30
2014,10,06,01,07,14.30
2014,10,06,01,08,14.30
2014,10,06,01,09,14.30
2014,10,06,01,10,14.20
2014,10,06,01,11,14.20
2014,10,06,01,12,14.20
2014,10,06,01,13,14.20
2014,10,06,01,14,14.20
2014,10,06,01,15,14.20
2014,10,06,01,16,14.10
2014,10,06,01,17,14.10
2014,10,06,01,18,14.10
2014,10,06,01,19,14.00
2014,10,06,01,20,14.00
2014,10,06,01,21,13.90
2014,10,06,01,22,13.90
2014,10,06,01,23,13.90
2014,10,06,01,24,13.90
2014,10,06,01,25,13.80
2014,10,06,01,26,13.80
2014,10,06,01,27,13.80
2014,10,06,01,28,13.80
2014,10,06,01,29,13.80
2014,10,06,01,30,13.80
2014,10,06,01,31,13.80
2014,10,06,01,32,13.80
2014,10,06,01,33,13.80
2014,10,06,01,34,13.70
2014,10,06,01,35,13.70
2014,10,06,01,36,13.70
2014,10,06,01,37,13.70
2014,10,06,01,38,13.70
2014,10,06,01,39,13.70
2014,10,06,01,40,13.70
2014,10,06,01,41,13.70
2014,10,06,01,42,13.70
2014,10,06,01,43,13.70
2014,10,06,01,44,13.70
2014,10,06,01,45,13.60
2014,10,06,01,46,13.60
2014,10,06,01,47,13.60
2014,10,06,01,48,13.60
2014,10,06,01,49,13.60
2014,10,06,01,50,13.60
2014,10,06,01,51,13.50
2014,10,06,01,52,13.50
2014,10,06,01,53,13.50
2014,10,06,01,54,13.40
2014,10,06,01,55,13.40
2014,10,06,01,56,13.40
2014,10,06,01,57,13.40
2014,10,06,01,58,13.40
2014,10,06,01,59,13.30
2014,10,06,02,00,13.30
2014,10,06,02,01,13.30
2014,10,06,02,02,13.30
2014,10,06,02,03,13.30
2014,10,06,02,04,13.20
2014,10,06,02,05,13.20
2014,10,06,02,06,13.20
2014,10,06,02,07,13.20
2014,10,06,02,08,13.20
2014,10,06,02,09,13.20
2014,10,06,02,10,13.20
2014,10,06,02,11,13.20
2014,10,06,02,12,13.20
2014,10,06,02,13,13.20
2014,10,06,02,14,13.20
2014,10,06,02,15,13.10
2014,10,06,02,16,13.10
2014,10,06,02,17,13.10
2014,10,06,02,18,13.10
2014,10,06,02,19,13.10
2014,10,06,02,20,13.10
2014,10,06,02,21,13.10
2014,10,06,02,22,13.10
2014,10,06,02,23,13.10
2014,10,06,02,24,13.10
2014,10,06,02,25,13.10
2014,10,06,02,26,13.10
2014,10,06,02,27,13.10
2014,10,06,02,28,13.00
2014,10,06,02,29,13.00
2014,10,06,02,30,13.00
2014,10,06,02,31,13.00
2014,10,06,02,32,13.00
2014,10,06,02,33,13.00
2014,10,06,02,34,13.00
2014,10,06,02,35,12.90
2014,10,06,02,36,12.90
2014,10,06,02,37,12.90
2014,10,06,02,38,12.90
2014,10,06,02,39,12.90
2014,10,06,02,40,12.90
2014,10,06,02,41,12.90
2014,10,06,02,42,12.90
2014,10,06,02,43,12.80
2014,10,06,02,44,12.80
2014,10,06,02,45,12.80
2014,10,06,02,46,12.80
2014,10,06,02,47,12.80
2014,10,06,02,48,12.80
2014,10,06,02,49,12.80
2014,10,06,02,50,12.80
2014,10,06,02,51,12.80
2014,10,06,02,52,12.80
2014,10,06,02,53,12.80
2014,10,06,02,54,12.80
2014,10,06,02,55,12.80
2014,10,06,02,56,12.80
2014,10,06,02,57,12.80
2014,10,06,02,58,12.80
2014,10,06,02,59,12.80
2014,10,06,03,00,12.80
2014,10,06,03,01,12.80
2014,10,06,03,02,12.80
2014,10,06,03,03,12.80
2014,10,06,03,04,12.80
2014,10,06,03,05,12.80
2014,10,06,03,06,12.80
2014,10,06,03,07,12.80
2014,10,06,03,08,12.70
2014,10,06,03,09,12.70
2014,10,06,03,10,12.70
2014,10,06,03,11,12.70
2014,10,06,03,12,12.70
2014,10,06,03,13,12.70
2014,10,06,03,14,12.70
2014,10,06,03,15,12.70
2014,10,06,03,16,12.70
2014,10,06,03,17,12.70
2014,10,06,03,18,12.70
2014,10,06,03,19,12.70
2014,10,06,03,20,12.70
2014,10,06,03,21,12.70
2014,10,06,03,22,12.70
2014,10,06,03,23,12.60
2014,10,06,03,24,12.60
2014,10,06,03,25,12.60
2014,10,06,03,26,12.60
2014,10,06,03,27,12.60
2014,10,06,03,28,12.60
2014,10,06,03,29,12.60
2014,10,06,03,30,12.60
2014,10,06,03,31,12.60
2014,10,06,03,32,12.50
2014,10,06,03,33,12.50
2014,10,06,03,34,12.50
2014,10,06,03,35,12.50
2014,10,06,03,36,12.50
2014,10,06,03,37,12.50
2014,10,06,03,38,12.50
2014,10,06,03,39,12.50
2014,10,06,03,40,12.50
2014,10,06,03,41,12.50
2014,10,06,03,42,12.40
2014,10,06,03,43,12.50
2014,10,06,03,44,12.40
2014,10,06,03,45,12.40
2014,10,06,03,46,12.40
2014,10,06,03,47,12.40
2014,10,06,03,48,12.40
2014,10,06,03,49,12.40
2014,10,06,03,50,12.40
2014,10,06,03,51,12.40
2014,10,06,03,52,12.40
2014,10,06,03,53,12.40
2014,10,06,03,54,12.40
2014,10,06,03,55,12.40
2014,10,06,03,56,12.40
2014,10,06,03,57,12.40
2014,10,06,03,58,12.40
2014,10,06,03,59,12.40
2014,10,06,04,00,12.40
2014,10,06,04,01,12.30
2014,10,06,04,02,12.30
2014,10,06,04,03,12.30
2014,10,06,04,04,12.30
2014,10,06,04,05,12.30
2014,10,06,04,06,12.30
2014,10,06,04,07,12.30
2014,10,06,04,08,12.30
2014,10,06,04,09,12.30
2014,10,06,04,10,12.30
2014,10,06,04,11,12.30
2014,10,06,04,12,12.30
2014,10,06,04,13,12.30
2014,10,06,04,14,12.30
2014,10,06,04,15,12.30
2014,10,06,04,16,12.30
2014,10,06,04,17,12.30
2014,10,06,04,18,12.20
2014,10,06,04,19,12.20
2014,10,06,04,20,12.20
2014,10,06,04,21,12.20
2014,10,06,04,22,12.20
2014,10,06,04,23,12.20
2014,10,06,04,24,12.20
2014,10,06,04,25,12.20
2014,10,06,04,26,12.10
2014,10,06,04,27,12.10
2014,10,06,04,28,12.10
2014,10,06,04,29,12.10
2014,10,06,04,30,12.10
2014,10,06,04,31,12.10
2014,10,06,04,32,12.10
2014,10,06,04,33,12.10
2014,10,06,04,34,12.10
2014,10,06,04,35,12.10
2014,10,06,04,36,12.00
2014,10,06,04,37,12.00
2014,10,06,04,38,12.00
2014,10,06,04,39,12.00
2014,10,06,04,40,12.00
2014,10,06,04,41,12.00
2014,10,06,04,42,12.00
2014,10,06,04,43,12.00
2014,10,06,04,44,12.00
2014,10,06,04,45,12.00
2014,10,06,04,46,12.00
2014,10,06,04,47,12.00
2014,10,06,04,48,12.00
2014,10,06,04,49,12.00
2014,10,06,04,50,12.00
2014,10,06,04,51,12.00
2014,10,06,04,52,12.00
2014,10,06,04,53,12.00
2014,10,06,04,54,12.00
2014,10,06,04,55,12.00
2014,10,06,04,56,12.00
2014,10,06,04,57,11.90
2014,10,06,04,58,11.90
2014,10,06,04,59,11.90
2014,10,06,05,00,11.90
2014,10,06,05,01,11.90
2014,10,06,05,02,11.90
2014,10,06,05,03,11.90
2014,10,06,05,04,11.90
2014,10,06,05,05,11.90
2014,10,06,05,06,11.90
2014,10,06,05,07,11.90
2014,10,06,05,08,11.90
2014,10,06,05,09,11.90
2014,10,06,05,10,11.90
2014,10,06,05,11,11.90
2014,10,06,05,12,11.90
2014,10,06,05,13,11.90
2014,10,06,05,14,11.90
2014,10,06,05,15,11.90
2014,10,06,05,16,11.90
2014,10,06,05,17,11.90
2014,10,06,05,18,11.80
2014,10,06,05,19,11.80
2014,10,06,05,20,11.80
2014,10,06,05,21,11.80
2014,10,06,05,22,11.80
2014,10,06,05,23,11.80
2014,10,06,05,24,11.80
2014,10,06,05,25,11.80
2014,10,06,05,26,11.80
2014,10,06,05,27,11.80
2014,10,06,05,28,11.80
2014,10,06,05,29,11.70
2014,10,06,05,30,11.70
2014,10,06,05,31,11.70
2014,10,06,05,32,11.70
2014,10,06,05,33,11.70
2014,10,06,05,34,11.70
2014,10,06,05,35,11.70
2014,10,06,05,36,11.70
2014,10,06,05,37,11.70
2014,10,06,05,38,11.70
2014,10,06,05,39,11.60
2014,10,06,05,40,11.60
2014,10,06,05,41,11.60
2014,10,06,05,42,11.60
2014,10,06,05,43,11.60
2014,10,06,05,44,11.60
2014,10,06,05,45,11.60
2014,10,06,05,46,11.60
2014,10,06,05,47,11.60
2014,10,06,05,48,11.60
2014,10,06,05,49,11.60
2014,10,06,05,50,11.60
2014,10,06,05,51,11.50
2014,10,06,05,52,11.50
2014,10,06,05,53,11.50
2014,10,06,05,54,11.50
2014,10,06,05,55,11.50
2014,10,06,05,56,11.50
2014,10,06,05,57,11.50
2014,10,06,05,58,11.50
2014,10,06,05,59,11.50
2014,10,06,06,00,11.50
2014,10,06,06,01,11.50
2014,10,06,06,02,11.50
2014,10,06,06,03,11.50
2014,10,06,06,04,11.50
2014,10,06,06,05,11.50
2014,10,06,06,06,11.50
2014,10,06,06,07,11.50
2014,10,06,06,08,11.50
2014,10,06,06,09,11.50
2014,10,06,06,10,11.40
2014,10,06,06,11,11.40
2014,10,06,06,12,11.40
2014,10,06,06,13,11.40
2014,10,06,06,14,11.40
2014,10,06,06,15,11.40
2014,10,06,06,16,11.40
2014,10,06,06,17,11.40
2014,10,06,06,18,11.40
2014,10,06,06,19,11.40
2014,10,06,06,20,11.40
2014,10,06,06,21,11.40
2014,10,06,06,22,11.40
2014,10,06,06,23,11.40
2014,10,06,06,24,11.40
2014,10,06,06,25,11.40
2014,10,06,06,26,11.50
2014,10,06,06,27,11.50
2014,10,06,06,28,11.50
2014,10,06,06,29,11.50
2014,10,06,06,30,11.50
2014,10,06,06,31,11.50
2014,10,06,06,32,11.50
2014,10,06,06,33,11.50
2014,10,06,06,34,11.50
2014,10,06,06,35,11.50
2014,10,06,06,36,11.50
2014,10,06,06,37,11.50
2014,10,06,06,38,11.50
2014,10,06,06,39,11.50
2014,10,06,06,40,11.50
2014,10,06,06,41,11.50
2014,10,06,06,42,11.50
2014,10,06,06,43,11.40
2014,10,06,06,44,11.40
2014,10,06,06,45,11.40
2014,10,06,06,46,11.40
2014,10,06,06,47,11.40
2014,10,06,06,48,11.40
2014,10,06,06,49,11.40
2014,10,06,06,50,11.40
2014,10,06,06,51,11.40
2014,10,06,06,52,11.40
2014,10,06,06,53,11.40
2014,10,06,06,54,11.40
2014,10,06,06,55,11.40
2014,10,06,06,56,11.40
2014,10,06,06,57,11.40
2014,10,06,06,58,11.40
2014,10,06,06,59,11.40
2014,10,06,07,00,11.40
2014,10,06,07,01,11.30
2014,10,06,07,02,11.30
2014,10,06,07,03,11.30
2014,10,06,07,04,11.30
2014,10,06,07,05,11.30
2014,10,06,07,06,11.30
2014,10,06,07,07,11.30
2014,10,06,07,08,11.30
2014,10,06,07,09,11.30
2014,10,06,07,10,11.30
2014,10,06,07,11,11.30
2014,10,06,07,12,11.30
2014,10,06,07,13,11.30
2014,10,06,07,14,11.30
2014,10,06,07,15,11.30
2014,10,06,07,16,11.20
2014,10,06,07,17,11.20
2014,10,06,07,18,11.20
2014,10,06,07,19,11.20
2014,10,06,07,20,11.20
2014,10,06,07,21,11.20
2014,10,06,07,22,11.20
2014,10,06,07,23,11.20
2014,10,06,07,24,11.20
2014,10,06,07,25,11.10
2014,10,06,07,26,11.10
2014,10,06,07,27,11.10
2014,10,06,07,28,11.10
2014,10,06,07,29,11.10
2014,10,06,07,30,11.10
2014,10,06,07,31,11.10
2014,10,06,07,32,11.10
2014,10,06,07,33,11.10
2014,10,06,07,34,11.10
2014,10,06,07,35,11.10
2014,10,06,07,36,11.10
2014,10,06,07,37,11.10
2014,10,06,07,38,11.10
2014,10,06,07,39,11.10
2014,10,06,07,40,11.10
2014,10,06,07,41,11.10
2014,10,06,07,42,11.10
2014,10,06,07,43,11.10
2014,10,06,07,44,11.10
2014,10,06,07,45,11.10
2014,10,06,07,46,11.10
2014,10,06,07,47,11.10
2014,10,06,07,48,11.00
2014,10,06,07,49,11.10
2014,10,06,07,50,11.10
2014,10,06,07,51,11.00
2014,10,06,07,52,11.00
2014,10,06,07,53,11.00
2014,10,06,07,54,11.00
2014,10,06,07,55,11.00
2014,10,06,07,56,11.00
2014,10,06,07,57,11.00
2014,10,06,07,58,11.00
2014,10,06,07,59,11.00
2014,10,06,08,00,11.00
2014,10,06,08,01,11.00
2014,10,06,08,02,11.00
2014,10,06,08,03,11.00
2014,10,06,08,04,11.00
2014,10,06,08,05,11.10
2014,10,06,08,06,11.00
2014,10,06,08,07,11.00
2014,10,06,08,08,11.00
2014,10,06,08,09,11.00
2014,10,06,08,10,11.00
2014,10,06,08,11,11.00
2014,10,06,08,12,11.00
2014,10,06,08,13,11.00
2014,10,06,08,14,11.00
2014,10,06,08,15,11.00
2014,10,06,08,16,11.00
2014,10,06,08,17,11.00
2014,10,06,08,18,11.10
2014,10,06,08,19,11.10
2014,10,06,08,20,11.10
2014,10,06,08,21,11.10
2014,10,06,08,22,11.10
2014,10,06,08,23,11.10
2014,10,06,08,24,11.10
2014,10,06,08,25,11.10
2014,10,06,08,26,11.10
2014,10,06,08,27,11.20
2014,10,06,08,28,11.20
2014,10,06,08,29,11.20
2014,10,06,08,30,11.20
2014,10,06,08,31,11.20
2014,10,06,08,32,11.20
2014,10,06,08,33,11.30
2014,10,06,08,34,11.30
2014,10,06,08,35,11.30
2014,10,06,08,36,11.30
2014,10,06,08,37,11.30
2014,10,06,08,38,11.40
2014,10,06,08,39,11.40
2014,10,06,08,40,11.40
2014,10,06,08,41,11.50
2014,10,06,08,42,11.50
2014,10,06,08,43,11.60
2014,10,06,08,44,11.60
2014,10,06,08,45,11.60
2014,10,06,08,46,11.60
2014,10,06,08,47,11.70
2014,10,06,08,48,11.70
2014,10,06,08,49,11.70
2014,10,06,08,50,11.80
2014,10,06,08,51,11.80
2014,10,06,08,52,11.80
2014,10,06,08,53,11.80
2014,10,06,08,54,11.90
2014,10,06,08,55,11.90
2014,10,06,08,56,11.90
2014,10,06,08,57,11.90
2014,10,06,08,58,11.90
2014,10,06,08,59,12.00
2014,10,06,09,00,12.00
2014,10,06,09,01,12.00
2014,10,06,09,02,12.00
2014,10,06,09,03,12.00
2014,10,06,09,04,12.00
2014,10,06,09,05,12.00
2014,10,06,09,06,12.00
2014,10,06,09,07,12.00
2014,10,06,09,08,12.10
2014,10,06,09,09,12.10
2014,10,06,09,10,12.10
2014,10,06,09,11,12.20
2014,10,06,09,12,12.30
2014,10,06,09,13,12.40
2014,10,06,09,14,12.40
2014,10,06,09,15,12.40
2014,10,06,09,16,12.40
2014,10,06,09,17,12.50
2014,10,06,09,18,12.50
2014,10,06,09,19,12.50
2014,10,06,09,20,12.50
2014,10,06,09,21,12.50
2014,10,06,09,22,12.60
2014,10,06,09,23,12.60
2014,10,06,09,24,12.60
2014,10,06,09,25,12.60
2014,10,06,09,26,12.60
2014,10,06,09,27,12.60
2014,10,06,09,28,12.60
2014,10,06,09,29,12.70
2014,10,06,09,30,12.70
2014,10,06,09,31,12.70
2014,10,06,09,32,12.80
2014,10,06,09,33,12.80
2014,10,06,09,34,12.80
2014,10,06,09,35,12.80
2014,10,06,09,36,12.80
2014,10,06,09,37,12.80
2014,10,06,09,38,12.70
2014,10,06,09,39,12.70
2014,10,06,09,40,12.70
2014,10,06,09,41,12.70
2014,10,06,09,42,12.70
2014,10,06,09,43,12.60
2014,10,06,09,44,12.60
2014,10,06,09,45,12.60
2014,10,06,09,46,12.60
2014,10,06,09,47,12.60
2014,10,06,09,48,12.60
2014,10,06,09,49,12.60
2014,10,06,09,50,12.60
2014,10,06,09,51,12.60
2014,10,06,09,52,12.70
2014,10,06,09,53,12.70
2014,10,06,09,54,12.70
2014,10,06,09,55,12.70
2014,10,06,09,56,12.70
2014,10,06,09,57,12.80
2014,10,06,09,58,12.80
2014,10,06,09,59,12.80
2014,10,06,10,00,12.80
2014,10,06,10,01,12.90
2014,10,06,10,02,12.90
2014,10,06,10,03,12.90
2014,10,06,10,04,12.90
2014,10,06,10,05,13.00
2014,10,06,10,06,13.00
2014,10,06,10,07,13.10
2014,10,06,10,08,13.10
2014,10,06,10,09,13.10
2014,10,06,10,10,13.10
2014,10,06,10,11,13.20
2014,10,06,10,12,13.20
2014,10,06,10,13,13.20
2014,10,06,10,14,13.30
2014,10,06,10,15,13.30
2014,10,06,10,16,13.40
2014,10,06,10,17,13.40
2014,10,06,10,18,13.40
2014,10,06,10,19,13.50
2014,10,06,10,20,13.50
2014,10,06,10,21,13.60
2014,10,06,10,22,13.60
2014,10,06,10,23,13.60
2014,10,06,10,24,13.70
2014,10,06,10,25,13.70
2014,10,06,10,26,13.70
2014,10,06,10,27,13.80
2014,10,06,10,28,13.80
2014,10,06,10,29,13.90
2014,10,06,10,30,13.90
2014,10,06,10,31,14.00
2014,10,06,10,32,14.00
2014,10,06,10,33,14.00
2014,10,06,10,34,14.10
2014,10,06,10,35,14.10
2014,10,06,10,36,14.10
2014,10,06,10,37,14.00
2014,10,06,10,38,13.90
2014,10,06,10,39,13.90
2014,10,06,10,40,13.90
2014,10,06,10,41,13.90
2014,10,06,10,42,13.80
2014,10,06,10,43,13.80
2014,10,06,10,44,13.80
2014,10,06,10,45,13.80
2014,10,06,10,46,13.80
2014,10,06,10,47,13.80
2014,10,06,10,48,13.80
2014,10,06,10,49,13.80
2014,10,06,10,50,13.80
2014,10,06,10,51,13.80
2014,10,06,10,52,13.80
2014,10,06,10,53,13.80
2014,10,06,10,54,13.80
2014,10,06,10,55,13.90
2014,10,06,10,56,13.90
2014,10,06,10,57,14.00
2014,10,06,10,58,14.00
2014,10,06,10,59,14.00
2014,10,06,11,00,14.00
2014,10,06,11,01,14.10
2014,10,06,11,02,14.10
2014,10,06,11,03,14.10
2014,10,06,11,04,14.10
2014,10,06,11,05,14.20
2014,10,06,11,06,14.30
2014,10,06,11,07,14.30
2014,10,06,11,08,14.40
2014,10,06,11,09,14.50
2014,10,06,11,10,14.60
2014,10,06,11,11,14.60
2014,10,06,11,12,14.70
2014,10,06,11,13,14.80
2014,10,06,11,14,14.80
2014,10,06,11,15,14.90
2014,10,06,11,16,14.90
2014,10,06,11,17,14.90
2014,10,06,11,18,14.80
2014,10,06,11,19,14.70
2014,10,06,11,20,14.70
2014,10,06,11,21,14.60
2014,10,06,11,22,14.50
2014,10,06,11,23,14.50
2014,10,06,11,24,14.40
2014,10,06,11,25,14.40
2014,10,06,11,26,14.40
2014,10,06,11,27,14.40
2014,10,06,11,28,14.40
2014,10,06,11,29,14.40
2014,10,06,11,30,14.40
2014,10,06,11,31,14.40
2014,10,06,11,32,14.50
2014,10,06,11,33,14.60
2014,10,06,11,34,14.60
2014,10,06,11,35,14.70
2014,10,06,11,36,14.70
2014,10,06,11,37,14.80
2014,10,06,11,38,14.80
2014,10,06,11,39,14.90
2014,10,06,11,40,14.90
2014,10,06,11,41,15.00
2014,10,06,11,42,15.00
2014,10,06,11,43,15.10
2014,10,06,11,44,15.10
2014,10,06,11,45,15.20
2014,10,06,11,46,15.20
2014,10,06,11,47,15.20
2014,10,06,11,48,15.30
2014,10,06,11,49,15.30
2014,10,06,11,50,15.40
2014,10,06,11,51,15.50
2014,10,06,11,52,15.60
2014,10,06,11,53,15.60
2014,10,06,11,54,15.70
2014,10,06,11,55,15.80
2014,10,06,11,56,15.80
2014,10,06,11,57,15.90
2014,10,06,11,58,16.00
2014,10,06,11,59,16.00
2014,10,06,12,00,16.10
2014,10,06,12,01,16.10
2014,10,06,12,02,16.10
2014,10,06,12,03,16.10
2014,10,06,12,04,16.10
2014,10,06,12,05,16.10
2014,10,06,12,06,16.10
2014,10,06,12,07,16.20
2014,10,06,12,08,16.20
2014,10,06,12,09,16.20
2014,10,06,12,10,16.20
2014,10,06,12,11,16.20
2014,10,06,12,12,16.20
2014,10,06,12,13,16.20
2014,10,06,12,14,16.20
2014,10,06,12,15,16.30
2014,10,06,12,16,16.30
2014,10,06,12,17,16.30
2014,10,06,12,18,16.30
2014,10,06,12,19,16.40
2014,10,06,12,20,16.40
2014,10,06,12,21,16.50
2014,10,06,12,22,16.50
2014,10,06,12,23,16.60
2014,10,06,12,24,16.60
2014,10,06,12,25,16.60
2014,10,06,12,26,16.60
2014,10,06,12,27,16.60
2014,10,06,12,28,16.60
2014,10,06,12,29,16.70
2014,10,06,12,30,16.80
2014,10,06,12,31,16.80
2014,10,06,12,32,16.90
2014,10,06,12,33,17.00
2014,10,06,12,34,17.00
2014,10,06,12,35,17.10
2014,10,06,12,36,17.20
2014,10,06,12,37,17.20
2014,10,06,12,38,17.30
2014,10,06,12,39,17.40
2014,10,06,12,40,17.40
2014,10,06,12,41,17.50
2014,10,06,12,42,17.60
2014,10,06,12,43,17.60
2014,10,06,12,44,17.60
2014,10,06,12,45,17.60
2014,10,06,12,46,17.60
2014,10,06,12,47,17.50
2014,10,06,12,48,17.50
2014,10,06,12,49,17.50
2014,10,06,12,50,17.50
2014,10,06,12,51,17.50
2014,10,06,12,52,17.60
2014,10,06,12,53,17.50
2014,10,06,12,54,17.50
2014,10,06,12,55,17.60
2014,10,06,12,56,17.60
2014,10,06,12,57,17.60
2014,10,06,12,58,17.70
2014,10,06,12,59,17.70
2014,10,06,13,00,17.80
2014,10,06,13,01,17.90
2014,10,06,13,02,17.90
2014,10,06,13,03,18.00
2014,10,06,13,04,18.00
2014,10,06,13,05,18.10
2014,10,06,13,06,18.10
2014,10,06,13,07,18.10
2014,10,06,13,08,18.10
2014,10,06,13,09,18.10
2014,10,06,13,10,18.10
2014,10,06,13,11,18.10
2014,10,06,13,12,18.10
2014,10,06,13,13,18.10
2014,10,06,13,14,18.10
2014,10,06,13,15,18.10
2014,10,06,13,16,18.10
2014,10,06,13,17,18.10
2014,10,06,13,18,18.10
2014,10,06,13,19,18.10
2014,10,06,13,20,18.10
2014,10,06,13,21,18.10
2014,10,06,13,22,18.10
2014,10,06,13,23,18.10
2014,10,06,13,24,18.10
2014,10,06,13,25,18.10
2014,10,06,13,26,18.20
2014,10,06,13,27,18.20
2014,10,06,13,28,18.30
2014,10,06,13,29,18.30
2014,10,06,13,30,18.40
2014,10,06,13,31,18.40
2014,10,06,13,32,18.50
2014,10,06,13,33,18.50
2014,10,06,13,34,18.60
2014,10,06,13,35,18.60
2014,10,06,13,36,18.70
2014,10,06,13,37,18.70
2014,10,06,13,38,18.70
2014,10,06,13,39,18.70
2014,10,06,13,40,18.70
2014,10,06,13,41,18.70
2014,10,06,13,42,18.80
2014,10,06,13,43,18.80
2014,10,06,13,44,18.80
2014,10,06,13,45,18.90
2014,10,06,13,46,18.90
2014,10,06,13,47,19.00
2014,10,06,13,48,19.10
2014,10,06,13,49,19.20
2014,10,06,13,50,19.20
2014,10,06,13,51,19.30
2014,10,06,13,52,19.30
2014,10,06,13,53,19.30
2014,10,06,13,54,19.40
2014,10,06,13,55,19.40
2014,10,06,13,56,19.40
2014,10,06,13,57,19.40
2014,10,06,13,58,19.50
2014,10,06,13,59,19.50
2014,10,06,14,00,19.50
2014,10,06,14,01,19.50
2014,10,06,14,02,19.50
2014,10,06,14,03,19.60
2014,10,06,14,04,19.60
2014,10,06,14,05,19.60
2014,10,06,14,06,19.60
2014,10,06,14,07,19.60
2014,10,06,14,08,19.60
2014,10,06,14,09,19.60
2014,10,06,14,10,19.70
2014,10,06,14,11,19.70
2014,10,06,14,12,19.70
2014,10,06,14,13,19.70
2014,10,06,14,14,19.70
2014,10,06,14,15,19.70
2014,10,06,14,16,19.60
2014,10,06,14,17,19.60
2014,10,06,14,18,19.60
2014,10,06,14,19,19.60
2014,10,06,14,20,19.60
2014,10,06,14,21,19.60
2014,10,06,14,22,19.60
2014,10,06,14,23,19.70
2014,10,06,14,24,19.70
2014,10,06,14,25,19.70
2014,10,06,14,26,19.70
2014,10,06,14,27,19.70
2014,10,06,14,28,19.70
2014,10,06,14,29,19.70
2014,10,06,14,30,19.70
2014,10,06,14,31,19.70
2014,10,06,14,32,19.70
2014,10,06,14,33,19.70
2014,10,06,14,34,19.70
2014,10,06,14,35,19.70
2014,10,06,14,36,19.80
2014,10,06,14,37,19.80
2014,10,06,14,38,19.80
2014,10,06,14,39,19.80
2014,10,06,14,40,19.90
2014,10,06,14,41,19.90
2014,10,06,14,42,19.90
2014,10,06,14,43,19.90
2014,10,06,14,44,19.90
2014,10,06,14,45,19.90
2014,10,06,14,46,19.90
2014,10,06,14,47,19.80
2014,10,06,14,48,19.80
2014,10,06,14,49,19.80
2014,10,06,14,50,19.70
2014,10,06,14,51,19.70
2014,10,06,14,52,19.70
2014,10,06,14,53,19.70
2014,10,06,14,54,19.70
2014,10,06,14,55,19.70
2014,10,06,14,56,19.70
2014,10,06,14,57,19.70
2014,10,06,14,58,19.70
2014,10,06,14,59,19.70
2014,10,06,15,00,19.80
2014,10,06,15,01,19.80
2014,10,06,15,02,19.80
2014,10,06,15,03,19.90
2014,10,06,15,04,19.90
2014,10,06,15,05,19.80
2014,10,06,15,06,19.80
2014,10,06,15,07,19.80
2014,10,06,15,08,19.80
2014,10,06,15,09,19.80
2014,10,06,15,10,19.80
2014,10,06,15,11,19.80
2014,10,06,15,12,19.80
2014,10,06,15,13,19.80
2014,10,06,15,14,19.90
2014,10,06,15,15,19.90
2014,10,06,15,16,19.90
2014,10,06,15,17,19.80
2014,10,06,15,18,19.80
2014,10,06,15,19,19.80
2014,10,06,15,20,19.80
2014,10,06,15,21,19.80
2014,10,06,15,22,19.80
2014,10,06,15,23,19.80
2014,10,06,15,24,19.70
2014,10,06,15,25,19.60
2014,10,06,15,26,19.60
2014,10,06,15,27,19.50
2014,10,06,15,28,19.40
2014,10,06,15,29,19.40
2014,10,06,15,30,19.30
2014,10,06,15,31,19.40
2014,10,06,15,32,19.40
2014,10,06,15,33,19.40
2014,10,06,15,34,19.40
2014,10,06,15,35,19.40
2014,10,06,15,36,19.40
2014,10,06,15,37,19.40
2014,10,06,15,38,19.40
2014,10,06,15,39,19.40
2014,10,06,15,40,19.40
2014,10,06,15,41,19.40
2014,10,06,15,42,19.40
2014,10,06,15,43,19.40
2014,10,06,15,44,19.40
2014,10,06,15,45,19.40
2014,10,06,15,46,19.30
2014,10,06,15,47,19.30
2014,10,06,15,48,19.30
2014,10,06,15,49,19.30
2014,10,06,15,50,19.30
2014,10,06,15,51,19.30
2014,10,06,15,52,19.30
2014,10,06,15,53,19.30
2014,10,06,15,54,19.30
2014,10,06,15,55,19.30
2014,10,06,15,56,19.30
2014,10,06,15,57,19.30
2014,10,06,15,58,19.30
2014,10,06,15,59,19.40
2014,10,06,16,00,19.40
2014,10,06,16,01,19.40
2014,10,06,16,02,19.40
2014,10,06,16,03,19.50
2014,10,06,16,04,19.50
2014,10,06,16,05,19.50
2014,10,06,16,06,19.60
2014,10,06,16,07,19.60
2014,10,06,16,08,19.60
2014,10,06,16,09,19.70
2014,10,06,16,10,19.70
2014,10,06,16,11,19.70
2014,10,06,16,12,19.70
2014,10,06,16,13,19.70
2014,10,06,16,14,19.70
2014,10,06,16,15,19.70
2014,10,06,16,16,19.70
2014,10,06,16,17,19.80
2014,10,06,16,18,19.80
2014,10,06,16,19,19.80
2014,10,06,16,20,19.80
2014,10,06,16,21,19.80
2014,10,06,16,22,19.80
2014,10,06,16,23,19.80
2014,10,06,16,24,19.80
2014,10,06,16,25,19.90
2014,10,06,16,26,19.90
2014,10,06,16,27,19.90
2014,10,06,16,28,20.00
2014,10,06,16,29,20.00
2014,10,06,16,30,20.10
2014,10,06,16,31,20.10
2014,10,06,16,32,20.10
2014,10,06,16,33,20.10
2014,10,06,16,34,20.10
2014,10,06,16,35,20.10
2014,10,06,16,36,20.10
2014,10,06,16,37,20.10
2014,10,06,16,38,20.20
2014,10,06,16,39,20.20
2014,10,06,16,40,20.20
2014,10,06,16,41,20.20
2014,10,06,16,42,20.20
2014,10,06,16,43,20.20
2014,10,06,16,44,20.20
2014,10,06,16,45,20.30
2014,10,06,16,46,20.30
2014,10,06,16,47,20.30
2014,10,06,16,48,20.30
2014,10,06,16,49,20.30
2014,10,06,16,50,20.30
2014,10,06,16,51,20.30
2014,10,06,16,52,20.30
2014,10,06,16,53,20.30
2014,10,06,16,54,20.30
2014,10,06,16,55,20.40
2014,10,06,16,56,20.40
2014,10,06,16,57,20.40
2014,10,06,16,58,20.40
2014,10,06,16,59,20.40
2014,10,06,17,00,20.40
2014,10,06,17,01,20.40
2014,10,06,17,02,20.30
2014,10,06,17,03,20.30
2014,10,06,17,04,20.30
2014,10,06,17,05,20.30
2014,10,06,17,06,20.40
2014,10,06,17,07,20.40
2014,10,06,17,08,20.40
2014,10,06,17,09,20.40
2014,10,06,17,10,20.40
2014,10,06,17,11,20.30
2014,10,06,17,12,20.30
2014,10,06,17,13,20.30
2014,10,06,17,14,20.30
2014,10,06,17,15,20.20
2014,10,06,17,16,20.20
2014,10,06,17,17,20.20
2014,10,06,17,18,20.20
2014,10,06,17,19,20.20